Regional Weather Roundup
Issued by NWS Kansas City/Pleasant Hill, MO

Home | Current Version | Previous Version | Graphics & Text | Print | Product List | Glossary Off
Versions: 1 2 3 4 5 6 7 8 9 10 11 12 13 14 15 16 17 18 19 20 21 22 23 24 25 26 27 28

000
ASUS43 KEAX 232110
RWREAX

WEATHER ROUNDUP FOR EASTERN KANSAS AND NORTHWEST MISSOURI
NATIONAL WEATHER SERVICE KANSAS CITY/PLEASANT HILL MO
300 PM CST THU FEB 23 2017

KSZ040-057-103>105-MOZ028-029-037-043-232200-
...KANSAS CITY METROPOLITAN AREA...

CITY           SKY/WX    TMP DP  RH WIND       PRES   REMARKS
K.C. INTL      CLOUDY    51  43  74 E15       29.47F
K.C. DOWNTOWN  CLOUDY    55  44  66 NE12      29.46F
LEES SUMMIT    CLOUDY    56  46  69 E12       29.46F
OLATHE - IXD   CLOUDY    58  47  66 E15G21    29.44F
OLATHE - OJC   CLOUDY    56  47  71 E10       29.44F
LAWRENCE       CLOUDY    57  46  66 E12       29.44F

$$

MOZ001>008-011>017-020>025-030>033-038>040-044>046-053-054-232200-
...NORTHERN AND CENTRAL MISSOURI...

CITY           SKY/WX    TMP DP  RH WIND       PRES   REMARKS
ST. JOSEPH     PTSUNNY   56  46  69 SE14      29.49S
WARRENSBURG    CLOUDY    63  50  63 NE16G23   29.45F
WHITEMAN AFB   PTSUNNY   66  56  70 NE8       29.46F
CLINTON        MOSUNNY   68  55  64 NE9       29.45F
SEDALIA        PTSUNNY   68  54  60 E16G23    29.48F
WARSAW         NOT AVBL
CHILLICOTHE      N/A     49  43  80 E12G22    29.52F
KIRKSVILLE     CLOUDY    49  44  83 E14       29.56F

$$

MOZ041-047>049-056>058-063>065-088>090-097-232200-
...EASTERN AND SOUTHERN MISSOURI...

CITY           SKY/WX    TMP DP  RH WIND       PRES   REMARKS
ST. LOUIS INTL CLOUDY    71  55  56 SE17G23   29.59F
SPIRIT OF STL  MOSUNNY   74  56  53 SE12G25   29.54F
COLUMBIA       MOSUNNY   65  56  72 E15       29.49F
JEFFERSON CITY MOSUNNY   69  56  62 E14       29.48F
ROLLA          SUNNY     67  55  65 SE18G29   29.52F
OSAGE BEACH    MOSUNNY   75  54  47 SE10G16   29.47F
SPRINGFIELD    SUNNY     78  50  37 S21       29.44F
BRANSON        PTSUNNY   77  48  36 S12G18    29.51F
JOPLIN         MOSUNNY   82  47  29 SW18G29   29.41F
WEST PLAINS    SUNNY     76  53  44 S15G24    29.58F

$$

IAZ060-094-KSZ022-034>040-054-083-096-NEZ052-066-093-232200-
...KANSAS...SOUTHEAST NEBRASKA AND IOWA...

CITY           SKY/WX    TMP DP  RH WIND       PRES   REMARKS
TOPEKA         MOSUNNY   62  48  60 E13       29.42F
MANHATTAN      MOSUNNY   59  44  57 N15       29.42F
EMPORIA        CLOUDY    68  51  54 SE12      29.37F
CHANUTE        PTSUNNY   77  49  37 S16       29.39F
WICHITA        MOSUNNY   72  48  42 SE12      29.34F
OMAHA          CLOUDY    41  34  76 NE21G29   29.61F WCI  32
LINCOLN        CLOUDY    41  34  76 NE22G29   29.59F WCI  31
FALLS CITY     CLOUDY    50  40  68 E16       29.50F
LAMONI         MOSUNNY   50  41  71 E16G25    29.51F
DES MOINES     CLOUDY    46  37  71 NE17G24   29.61F

$$





USA.gov is the U.S. government's official web portal to all federal, state and local government web resources and services.